www.pogodaiklimat.ru

Погода и климат >> Архив погоды >> Норвегия >> Эурскуг


ПОГОДА в Эурскуге

  • Прогноз погоды в Эурскуге
  • Монитор погоды в Эурскуге

АРХИВ ПОГОДЫ в Эурскуге

Время (UTC), дата Ветер
(напр.,м/с)
 
Видим.   Явления Облачность Т
(С)
Тd
(С)
f
(%)
Тe
(С)
Тes
(С)
Комфортность P
(гПа)
Po
(гПа)
Тmin
(С)
Tmax
(С)
R
(мм)
R24
(мм)
S
(см)
19 10.06 Ю 3-5
{6}
н/о н/о +14.5 +7.8 64 +14 +14 1018.9 1003.8
20 10.06 Ю 1-3
{4}
н/о н/о +12.2 +7.3 72 +12 +12 1019.5 1004.2
21 10.06 С 1-2
{2}
н/о н/о +8.7 +6.7 87 +8 +8 1020.3 1004.8
22 10.06 ЮВ 1-2
{3}
н/о н/о +7.6 +6.2 91 +7 +7 1020.7 1005.2
23 10.06 С 1-2
{2}
н/о н/о +6.0 +5.0 93 +5 +5 1020.8 1005.1
00 11.06 штиль 0-1
{6}
н/о н/о +4.9 +4.3 96 +4 +4 1020.5 1004.8 0.7
01 11.06 С 1-1
{1}
н/о н/о +3.5 +2.9 96 +2 +2 1020.9 1005.1
02 11.06 С 1-1
{1}
н/о н/о +3.4 +3.1 98 +2 +2 1021.5 1005.7
03 11.06 С 1-1
{2}
н/о н/о +3.1 +2.8 98 +1 +1 1021.7 1005.8
04 11.06 С 1-2
{2}
н/о н/о +4.9 +4.8 99 +3 +3 1021.8 1006.0
05 11.06 С 2-2
{2}
н/о н/о +7.2 +6.9 98 +5 +5 1021.7 1006.1
06 11.06 СЗ 2-4
{4}
н/о н/о +11.5 +9.4 87 +10 +10 1021.4 1006.0 +2.8 +15.8 0.7
07 11.06 В 4-7
{7}
н/о н/о +16.0 +8.7 62 +15 +15 1021.2 1006.1
08 11.06 В 4-6
{8}
н/о н/о +16.7 +8.2 57 +16 +16 1021.5 1006.5
09 11.06 В 5-8
{8}
н/о н/о +16.9 +7.0 52 +16 +16 1021.5 1006.4
10 11.06 В 4-7
{7}
н/о н/о +18.4 +7.5 49 +19 +19 1021.4 1006.5
11 11.06 В 2-6
{7}
н/о н/о +19.7 +7.1 44 +21 +21 комфорт 1021.0 1006.2
12 11.06 В 3-6
{8}
н/о н/о +19.0 +9.2 53 +20 +20 1021.1 1006.2
13 11.06 В 5-9
{10}
н/о н/о +20.4 +8.1 45 +21 +21 комфорт 1020.9 1006.0
14 11.06 В 5-10
{10}
н/о н/о +20.3 +7.3 43 +21 +21 комфорт 1020.7 1005.8
15 11.06 СВ 5-8
{9}
н/о н/о +19.2 +8.3 49 +20 +20 1020.8 1005.9
16 11.06 В 6-10
{10}
н/о н/о +18.2 +7.3 49 +18 +18 1021.1 1006.2
17 11.06 ЮВ 2-6
{9}
н/о н/о +15.7 +10.3 70 +16 +16 1021.7 1006.5
18 11.06 СВ 1-2
{10}
н/о н/о +13.9 +11.6 86 +14 +14 1022.1 1006.9 +11.6 +21.0 0.6
19 11.06 штиль 0-1
{2}
н/о н/о +13.4 +11.8 90 +13 +13 1023.0 1007.7
20 11.06 С 3-4
{4}
н/о н/о +12.7 +11.1 90 +11 +11 1023.6 1008.3
21 11.06 СВ 2-4
{5}
н/о н/о +12.2 +10.3 88 +11 +11 1024.9 1009.5
22 11.06 СВ 2-4
{8}
н/о н/о +10.4 +8.3 87 +9 +9 1025.2 1009.7
23 11.06 СЗ 2-3
{6}
н/о н/о +10.0 +9.1 94 +8 +8 1025.6 1010.0
00 12.06 СВ 4-6
{8}
н/о н/о +10.7 +8.8 88 +8 +8 1025.3 1009.8 9
01 12.06 СВ 2-4
{7}
н/о н/о +10.4 +8.5 88 +9 +9 1025.1 1009.6
02 12.06 С 4-6
{7}
н/о н/о +10.2 +8.0 86 +8 +8 1024.3 1008.8
03 12.06 -6
{7}
н/о н/о +10.1 +7.5 84 1024.3 1008.8
04 12.06 С 3-5
{6}
н/о н/о +9.8 +7.2 84 +8 +8 1024.0 1008.5
05 12.06 СВ 4-7
{8}
н/о н/о +9.9 +6.4 79 +7 +7 1024.3 1008.8
06 12.06 СВ 3-6
{8}
н/о н/о +9.7 +5.7 76 +8 +8 1024.3 1008.8 +9.7 +13.9 10
07 12.06 С 5-7
{9}
н/о н/о +9.4 +5.6 77 +6 +6 1023.9 1008.4
08 12.06 С 4-6
{8}
н/о н/о +9.5 +5.3 75 +7 +7 1023.4 1007.9
09 12.06 СВ 4-7
{9}
н/о н/о +9.9 +5.3 73 +7 +7 1023.0 1007.5
10 12.06 С 4-7
{8}
н/о н/о +10.1 +5.1 71 +8 +8 1022.1 1006.7
11 12.06 СВ 5-8
{10}
н/о н/о +11.3 +5.0 65 +9 +9 1021.6 1006.3
12 12.06 СВ 3-8
{10}
н/о н/о +11.4 +4.9 64 +10 +10 1022.0 1006.7
13 12.06 СВ 2-7
{7}
н/о н/о +10.3 +6.3 76 +9 +9 1021.7 1006.3
14 12.06 С 2-5
{6}
н/о н/о +10.3 +6.1 75 +9 +9 1021.6 1006.1
15 12.06 СВ 4-8
{8}
н/о н/о +10.2 +5.4 72 +8 +8 1021.1 1005.7
16 12.06 СВ 2-5
{6}
н/о н/о +9.5 +5.7 77 +8 +8 1020.3 1004.9
17 12.06 С 2-4
{7}
н/о н/о +9.2 +6.1 81 +8 +8 1020.2 1004.7
18 12.06 С 1-3
{8}
н/о н/о +8.8 +6.8 87 +8 +8 1019.3 1003.9 +8.8 +11.5 0.7
19 12.06 С 2-4
{6}
н/о н/о +8.8 +6.9 88 +7 +7 1018.7 1003.2
20 12.06 С 3-6
{6}
н/о н/о +9.2 +7.0 86 +7 +7 1018.4 1002.9
21 12.06 СВ 1-4
{5}
н/о н/о +9.3 +6.9 85 +9 +9 1017.8 1002.4
22 12.06 СВ 2-4
{8}
н/о н/о +9.6 +7.0 84 +8 +8 1016.9 1001.5
23 12.06 СВ 2-6
{8}
н/о н/о +9.7 +7.1 84 +8 +8 1015.7 1000.3
00 13.06 В 4-8
{8}
н/о н/о +9.2 +7.5 89 +6 +6 1013.8 998.4 5
01 13.06 СВ 4-7
{9}
н/о н/о +9.5 +7.6 88 +7 +7 1012.1 996.8
02 13.06 Ю 2-8
{8}
н/о н/о +9.3 +8.1 92 +8 +8 1012.6 997.3
03 13.06 СЗ 2-3
{5}
н/о н/о +9.3 +8.1 92 +8 +8 1010.6 995.3
04 13.06 В 2-5
{5}
н/о н/о +9.6 +8.5 93 +8 +8 1010.4 995.1
05 13.06 В 2-4
{7}
н/о н/о +9.6 +8.7 94 +8 +8 1010.8 995.5
06 13.06 В 1-2
{9}
н/о н/о +10.2 +9.3 94 +10 +10 1010.1 994.8 +8.8 +10.2 10
07 13.06 В 1-3
{3}
н/о н/о +10.5 +9.7 95 +10 +10 1010.3 995.1
08 13.06 ЮВ 1-3
{4}
н/о н/о +11.2 +10.4 95 +11 +11 1010.1 994.9
09 13.06 ЮВ 1-3
{4}
н/о н/о +11.3 +10.5 95 +11 +11 1010.8 995.6
10 13.06 Ю 2-4
{4}
н/о н/о +12.3 +11.5 95 +11 +11 1011.0 995.9
11 13.06 ЮВ 2-3
{5}
н/о н/о +12.9 +12.1 95 +12 +12 1011.4 996.3
12 13.06 ЮВ 3-6
{6}
н/о н/о +13.8 +12.7 93 +13 +13 1011.9 996.8 0.2
13 13.06 ЮВ 4-5
{6}
н/о н/о +14.1 +13.3 95 +13 +13 1012.4 997.3
14 13.06 ЮВ 4-5
{6}
н/о н/о +14.4 +13.5 94 +13 +13 1012.8 997.7
15 13.06 Ю 4-6
{7}
н/о н/о +15.0 +13.0 88 +14 +14 1013.1 998.1
16 13.06 Ю 4-6
{7}
н/о н/о +14.2 +12.1 87 +13 +13 1013.9 998.8
17 13.06 Ю 4-6
{7}
н/о н/о +14.6 +11.4 81 +13 +13 1014.2 999.1
18 13.06 ЮЗ 2-3
{7}
н/о н/о +14.7 +10.3 75 +14 +14 1014.7 999.6 +10.2 +15.6 0.2
19 13.06 ЮЗ 2-3
{4}
н/о н/о +13.8 +10.6 81 +13 +13 1015.5 1000.3
20 13.06 СВ 1-2
{3}
н/о н/о +11.0 +9.3 89 +11 +11 1016.1 1000.8
21 13.06 Ю 1-2
{2}
н/о н/о +9.0 +8.2 95 +8 +8 1017.1 1001.7
22 13.06 ЮЗ 1-1
{2}
н/о н/о +7.2 +6.8 97 +6 +6 1017.8 1002.3
23 13.06 СЗ 1-1
{2}
н/о н/о +6.6 +6.3 98 +5 +5 1017.6 1002.0
00 14.06 штиль 0
{4}
н/о н/о +5.3 +5.0 98 +4 +4 1017.6 1002.0 0.5
01 14.06 СВ 1-1
{2}
н/о н/о +5.0 +4.7 98 +3 +3 1017.6 1002.0
02 14.06 З 1-2
{2}
н/о н/о +5.7 +5.6 99 +4 +4 1018.4 1002.8
03 14.06 СЗ 1-1
{2}
н/о н/о +6.4 +6.3 99 +5 +5 1018.4 1002.8
04 14.06 В 1-1
{1}
н/о н/о +7.3 +7.2 99 +6 +6 1018.2 1002.6
05 14.06 штиль 0-1
{1}
н/о н/о +10.1 +10.0 99 +9 +9 1018.4 1003.0
06 14.06 С 2-2
{2}
н/о н/о +12.1 +11.5 96 +11 +11 1018.4 1003.2 +5.0 +14.8 0.5
07 14.06 ЮВ 2-4
{4}
н/о н/о +15.1 +13.0 87 +15 +15 1018.4 1003.3
08 14.06 ЮВ 2-4
{5}
н/о н/о +15.8 +12.0 78 +16 +16 1018.8 1003.7
09 14.06 Ю 2-4
{4}
н/о н/о +15.0 +11.6 80 +15 +15 1019.3 1004.2
10 14.06 З 2-4
{4}
н/о н/о +13.8 +12.5 92 +13 +13 1019.7 1004.5
11 14.06 СВ 1-1
{2}
н/о н/о +14.0 +13.1 94 +14 +14 1019.7 1004.5
12 14.06 В 1-2
{5}
н/о н/о +15.0 +13.2 89 +15 +15 1019.7 1004.6
13 14.06 ЮЗ 1-1
{3}
н/о н/о +15.9 +12.8 82 +17 +17 1019.3 1004.2
14 14.06 ЮЗ 1-2
{3}
н/о н/о +18.7 +14.4 76 +21 +21 комфорт 1018.6 1003.7
15 14.06 Ю 2-4
{5}
н/о н/о +18.6 +13.5 72 +20 +20 1018.4 1003.5
16 14.06 Ю 3-4
{6}
н/о н/о +18.2 +13.9 76 +19 +19 1018.2 1003.3
17 14.06 Ю 3-4
{4}
н/о н/о +18.4 +13.1 71 +19 +19 1018.2 1003.3
18 14.06 Ю 3-5
{6}
н/о н/о +16.9 +12.0 73 +17 +17 1018.1 1003.1 +12.2 +19.2
19 14.06 ЮЗ 2-4
{4}
н/о н/о +15.5 +11.3 76 +15 +15 1018.5 1003.4
20 14.06 В 1-1
{2}
н/о н/о +14.0 +12.1 88 +14 +14 1019.1 1003.9
21 14.06 СВ 1-2
{2}
н/о н/о +11.1 +9.7 91 +11 +11 1019.5 1004.2
22 14.06 Ю 2-2
{3}
н/о н/о +10.2 +9.4 95 +9 +9 1019.8 1004.4
23 14.06 Ю 1-2
{2}
н/о н/о +9.4 +8.8 96 +9 +9 1020.1 1004.6
00 15.06 СВ 1-1
{4}
н/о н/о +8.8 +8.4 97 +8 +8 1020.0 1004.5 0.5
01 15.06 В 1-1
{2}
н/о н/о +7.8 +7.4 97 +7 +7 1019.9 1004.3
02 15.06 штиль 0-1
{1}
н/о н/о +6.4 +6.0 97 +5 +5 1019.8 1004.2
03 15.06 СВ 1-1
{2}
н/о н/о +6.1 +5.8 98 +5 +5 1020.1 1004.5
04 15.06 В 1-1
{2}
н/о н/о +8.2 +8.1 99 +7 +7 1020.1 1004.6
05 15.06 штиль 0-1
{1}
н/о н/о +12.1 +11.8 98 +11 +11 1019.6 1004.4
06 15.06 В 1-1
{2}
н/о н/о +15.6 +13.4 87 +16 +16 1019.2 1004.1 +5.6 +17.4 0.6
07 15.06 СВ 1-1
{2}
н/о н/о +17.9 +11.9 68 +19 +19 1019.0 1004.1
08 15.06 СЗ 1-2
{2}
н/о н/о +19.0 +10.6 58 +21 +21 комфорт 1018.9 1004.0
09 15.06 ЮЗ 1-2
{2}
н/о н/о +21.0 +12.2 57 +24 +24 комфорт 1018.5 1003.7
10 15.06 В 1-2
{3}
н/о н/о +22.1 +9.6 45 +24 +24 комфорт 1017.9 1003.2
11 15.06 Ю 2-4
{4}
н/о н/о +22.3 +11.1 49 +24 +24 комфорт 1017.7 1003.0
12 15.06 С 1-4
{4}
н/о н/о +23.5 +7.6 36 +24 +24 комфорт 1016.8 1002.2
13 15.06 ЮЗ 1-2
{4}
н/о н/о +24.3 +6.1 31 +24 +24 комфорт 1016.2 1001.6
14 15.06 ЮЗ 2-3
{4}
н/о н/о +24.3 +11.3 44 +26 +26 жарко 1015.5 1001.0
15 15.06 ЮЗ 2-4
{4}
н/о н/о +25.0 +11.6 43 +26 +26 жарко 1015.0 1000.5
16 15.06 Ю 3-4
{4}
н/о н/о +23.9 +10.9 44 +25 +25 комфорт 1014.5 1000.0
17 15.06 Ю 3-5
{6}
н/о н/о +22.6 +12.5 53 +25 +25 комфорт 1014.3 999.7
18 15.06 ЮВ 3-4
{6}
н/о н/о +20.8 +12.8 60 +24 +24 комфорт 1014.2 999.5 +15.8 +25.2
19 15.06 Ю 2-4
{5}
н/о н/о +20.4 +12.9 62 +23 +23 комфорт 1014.2 999.5
20 15.06 С 1-2
{3}
н/о н/о +17.0 +13.9 82 +18 +18 1014.3 999.3
21 15.06 штиль 0-1
{2}
н/о н/о +15.5 +13.4 87 +15 +15 1014.1 999.0
22 15.06 СЗ 1-1
{1}
н/о н/о +13.5 +12.1 91 +14 +14 1014.1 999.0
23 15.06 СВ 1 н/о н/о +12.4 +11.6 95 +12 +12 1014.5 999.3
00 16.06 З 1-2
{5}
н/о н/о +11.8 +11.2 96 +12 +12 1014.5 999.3 0.7
01 16.06 штиль 0-2
{2}
н/о н/о +10.8 +10.3 97 +10 +10 1014.1 998.9
02 16.06 З 1-2
{2}
н/о н/о +11.5 +11.2 98 +11 +11 1013.6 998.4
03 16.06 Ю 1-1
{2}
н/о н/о +12.4 +12.1 98 +12 +12 1013.2 998.0
04 16.06 штиль 0-1
{1}
н/о н/о +12.6 +12.3 98 +12 +12 1013.2 998.0
05 16.06 ЮЗ 1-2
{2}
н/о н/о +13.9 +13.6 98 +14 +14 1013.1 998.0
06 16.06 С 1-1
{2}
н/о н/о +15.7 +14.9 95 +16 +16 1013.2 998.2 +10.3 +21.6 0.7
07 16.06 С 1-1
{1}
н/о н/о +17.4 +15.4 88 +18 +18 1013.3 998.4
08 16.06 Ю 1-1
{2}
н/о н/о +18.7 +14.6 77 +21 +21 комфорт 1013.2 998.3
09 16.06 ЮВ 2-3
{4}
н/о н/о +19.1 +13.9 72 +21 +21 комфорт 1013.4 998.6
10 16.06 ЮВ 3-4
{4}
н/о н/о +19.0 +13.8 72 +20 +20 1013.3 998.5
11 16.06 Ю 3-5
{5}
н/о н/о +19.4 +13.1 67 +21 +21 комфорт 1013.2 998.4
12 16.06 Ю 4-6
{6}
н/о н/о +20.4 +14.5 69 +23 +23 комфорт 1013.0 998.3
13 16.06 Ю 4-5
{7}
н/о н/о +18.5 +14.0 75 +19 +19 1013.6 998.7
14 16.06 Ю 4-6
{7}
н/о н/о +17.6 +13.7 78 +17 +17 1013.9 999.0
15 16.06 Ю 4-8
{8}
н/о н/о +17.4 +14.3 82 +17 +17 1013.9 999.0
16 16.06 Ю 4-7
{9}
н/о н/о +16.0 +13.7 86 +15 +15 1014.3 999.3
17 16.06 ЮЗ 4-6
{7}
н/о н/о +15.6 +13.1 85 +15 +15 1014.5 999.5
18 16.06 Ю 4-6
{9}
н/о н/о +15.7 +13.5 87 +15 +15 1014.5 999.5 +15.2 +21.2
19 16.06 Ю 5-6
{7}
н/о н/о +15.4 +13.1 86 +14 +14 1014.3 999.3
20 16.06 Ю 6-8
{9}
н/о н/о +14.4 +10.4 77 +13 +13 1014.3 999.2
21 16.06 Ю 5-7
{9}
н/о н/о +13.0 +10.7 86 +11 +11 1014.5 999.3
22 16.06 Ю 2-6
{8}
н/о н/о +12.3 +10.5 89 +11 +11 1014.8 999.6
23 16.06 Ю 3-4
{5}
н/о н/о +12.5 +11.2 92 +11 +11 1014.9 999.7
00 17.06 Ю 4-5
{9}
н/о н/о +12.5 +11.4 93 +10 +10 1014.8 999.6
01 17.06 Ю 3-6
{6}
н/о н/о +12.5 +11.2 92 +11 +11 1014.7 999.5
02 17.06 Ю 3-5
{6}
н/о н/о +12.5 +11.1 91 +11 +11 1014.6 999.4
03 17.06 Ю 3-5
{5}
н/о н/о +12.3 +10.7 90 +11 +11 1014.6 999.4
04 17.06 Ю 2-4
{6}
н/о н/о +12.2 +10.6 90 +11 +11 1014.9 999.6
05 17.06 ЮЗ 3-5
{5}
н/о н/о +12.4 +10.5 88 +11 +11 1015.0 999.8
06 17.06 Ю 2-4
{6}
н/о н/о +13.2 +11.1 87 +12 +12 1015.0 999.9 +12.2 +15.7
07 17.06 Ю 3-5
{6}
н/о н/о +14.1 +11.3 83 +13 +13 1015.3 1000.2
08 17.06 Ю 4-6
{7}
н/о н/о +17.1 +12.6 75 +17 +17 1015.0 1000.1
09 17.06 ЮЗ 5-9
{9}
н/о н/о +18.0 +11.6 66 +18 +18 1015.0 1000.1
10 17.06 Ю 6-9
{9}
н/о н/о +18.3 +10.4 60 +18 +18 1015.1 1000.2
11 17.06 Ю 8-12
{13}
н/о н/о +18.7 +6.9 46 +18 +18 1015.2 1000.4
12 17.06 Ю 8-12
{13}
н/о н/о +18.6 +8.3 51 +18 +18 1015.2 1000.4
13 17.06 Ю 8-11
{12}
н/о н/о +18.7 +10.0 57 +18 +18 1015.3 1000.4
14 17.06 Ю 7-10
{13}
н/о н/о +18.1 +11.4 65 +17 +17 1015.5 1000.6
15 17.06 Ю 7-10
{11}
н/о н/о +18.4 +11.7 65 +18 +18 1015.2 1000.3
16 17.06 Ю 8 н/о н/о +18.4 +11.0 62 +18 +18 1014.8 999.9
17 17.06 Ю 7-11
{12}
н/о н/о +17.9 +11.9 68 +17 +17 1014.7 999.8
18 17.06 Ю 7-10
{13}
н/о н/о +15.4 +11.8 79 +14 +14 1015.3 1000.2 +13.1 +19.0
19 17.06 Ю 7-10
{11}
н/о н/о +14.4 +11.0 80 +12 +12 1015.2 1000.1
20 17.06 Ю 7-12
{12}
н/о н/о +13.6 +10.4 81 +11 +11 1015.5 1000.4

 

Местоположение метеостанции Эурскуг (Норвегия): широта 59.91 долгота 11.58 высота над уровнем моря 128 м.

В архиве по умолчанию представлена погода в Эурскуге за последнюю неделю. Архивные данные за месяц целиком и за предыдущие месяцы, начиная с января 2011 года, Вы можете получить, выбрав интересующий диапазон дат из раскрывающегося списка и нажав кнопку "Ввод!".


*Определитесь, кто Вы:
робот инопланетянин человек

Внимание! Время в таблицах - всемирное. Для получения местного времени необходимо прибавить поправку, которая равна 1 ч.

Смотрите также архив погоды в соседних городах и на ближайших метеорологических станциях:

Погода в Кьеллере (Норвегия) (31 км)
Погода в Конгсвингере (Норвегия) (39 км)
Погода в Осло аэропорту (Норвегия) (43 км)
Погода в Хакадале (Норвегия) (48 км)
Погода в Осло (Норвегия) (48 км)
Погода в Тривассхогде (Норвегия) (51 км)
Погода в Бьорнхолте (Норвегия) (52 км)
Погода в Асе (Норвегия) (53 км)
Погода в Аскере (Норвегия) (65 км)
Погода в Арвике (Швеция) (65 км)

Пояснения к столбцам:

Ветер - указаны скорость ветра в м/с - средняя за 10 мин, порывы в срок и между сроками (в фигурных скобках) и направление, откуда дует ветер: С - северный, СВ - северо-восточный, В - восточный, ЮВ - юго-восточный, Ю - южный, ЮЗ - юго-западный, З - западный, СЗ - северо-западный.
Видимость - горизонтальная дальность видимости в метрах или километрах. При видимости от 1 до 10 км при отсутствии осадков обычно наблюдается дымка, при ухудшении видимости до 1 км и менее - туман. В сухую погоду видимость может ухудшаться дымом, пылью или мглою.
Явления - указаны атмосферные явления, наблюдавшиеся в срок или в последний час перед сроком; фигурными скобками обозначены явления, наблюдавшиеся между сроками (за 1-3 часа до срока); квадратными скобками обозначены град или гололедные отложения с указанием их диаметра в мм.
Облачность - указаны через наклонную черту общая и нижняя облачность в баллах и высота нижней границы облаков в метрах; квадратными скобками обозначены формы облаков: Ci - перистые, Cs - перисто-слоистые, Cc - перисто-кучевые, Ac - высококучевые, As - высокослоистые, Sc - слоисто-кучевые, Ns - слоисто-дождевые, Cu - кучевые, Cb - кучево-дождевые. Подробнее классификацию облаков см. в Атласе облаков (PDF).
T - Температура воздуха - температура, измеренная на высоте 2 м над землей.
Td - Температура точки росы - температура, при понижении до которой содержащийся в воздухе водяной пар достигнет насыщения.
f - Относительная влажность воздуха - влажноcть воздуха, измеренная на высоте 2 м над землей.
Te - Эффективная температура - температура, которую ощущает одетый по сезону человек в тени. Характеристика душности погоды. При расчете учитывается влияние влажности воздуха и скорости ветра на теплоощущения человека.
Tes - Эффективная температура на солнце - температура, которую ощущает человек, с поправкой на солнечный нагрев. Характеристика знойности погоды. Зависит от высоты солнца над горизонтом, облачности и скорости ветра. Ночью, в пасмурную погоду, а также при ветре 12 м/с и более поправка равна нулю.
P - Атмосферное давление - приведенное к уровню моря атмосферное давление.
Po - Атмосферное давление - измеренное на уровне метеостанции атмосферное давление.
Tmin - Минимальная температура - минимум температуры воздуха на высоте 2 м над землей.
Tmax - Максимальная температура - максимум температуры воздуха на высоте 2 м над землей.
R - Количество осадков - Количество выпавших осадков за период времени, мм. При наведении курсора мыши на число - период времени, за который выпало указанное количество осадков.
R24 - Количество осадков - Количество выпавших осадков за 24 часа, мм.
S - Снежный покров - Высота снежного покрова, см. При наведении курсора мыши на число - состояние снежного покрова и степень покрытия местности в баллах.